Wind_Speed
60 61 63 62 62 61 60 60 60 59 58 59 58 57 55 54 54 53 51 49 47 45 44 43 42 41 40 39 38 36 35 35 35 34 33 33 32 32 31 31 31 31 32 32
58 59 58 59 60 61 61 61 62 61 59 60 60 60 58 56 55 54 53 52 50 48 48 47 45 44 43 42 41 40 39 38 38 37 37 36 36 36 35 35 35 35 35 36
58 57 56 56 58 60 62 61 60 60 60 61 61 62 60 59 57 56 55 54 53 52 51 50 49 48 46 45 44 43 42 42 42 41 41 41 40 39 38 38 38 39 39 40
55 56 57 57 58 59 61 60 59 60 60 62 63 65 63 60 59 58 56 55 54 53 53 52 52 51 50 48 47 47 46 46 46 45 45 44 43 42 41 41 42 42 42 42
53 54 56 58 58 58 60 59 60 61 62 64 65 68 67 63 61 59 57 56 55 54 55 55 55 54 53 52 51 50 50 49 49 49 48 47 46 45 45 45 45 45 45 45
51 52 54 55 56 57 58 59 60 61 63 66 66 68 70 65 62 60 58 57 56 56 56 57 57 57 56 56 55 54 54 53 52 51 51 51 50 49 48 48 47 47 47 48
48 50 51 52 54 55 57 58 58 59 62 68 66 68 72 67 63 62 61 60 58 57 58 59 59 59 59 59 58 57 57 56 55 55 54 54 53 53 52 51 50 50 50 50
46 48 49 50 51 51 53 55 57 59 61 64 64 67 69 67 65 64 63 62 60 59 59 59 60 61 61 61 61 60 60 59 58 58 58 57 56 56 55 54 54 54 53 53
43 46 47 47 47 49 51 53 53 55 58 60 64 66 67 65 65 64 63 62 61 60 59 59 60 60 61 61 62 61 61 61 60 60 60 60 59 59 58 58 58 57 57 56
42 44 45 46 47 49 50 50 52 54 56 58 62 63 64 63 64 64 64 62 61 61 60 60 60 60 61 61 62 62 62 63 62 62 61 61 61 61 61 60 60 60 60 60
38 43 44 45 47 47 49 50 52 54 56 57 60 62 60 61 61 62 62 62 61 60 60 60 60 60 60 60 61 62 61 62 62 62 62 62 62 62 62 63 63 63 63 62
36 38 41 43 43 45 48 50 50 52 55 58 61 64 59 58 59 60 61 61 61 60 59 59 60 60 60 60 60 61 61 62 63 63 64 64 64 64 64 65 65 65 65 65
34 37 39 39 41 43 46 47 48 50 53 54 56 60 59 59 59 59 59 60 61 61 61 60 60 60 61 62 62 62 62 63 64 64 64 65 66 66 66 66 66 66 66 66
35 38 39 40 40 41 43 44 45 47 51 54 55 56 57 58 59 59 59 60 62 62 61 61 61 61 61 62 62 63 63 64 64 65 65 65 66 66 66 66 66 67 67 67
36 38 39 41 41 44 45 46 46 47 48 51 52 53 55 57 59 60 60 61 62 63 63 62 61 61 61 61 61 62 63 63 64 64 65 65 66 66 67 67 67 67 67 67
37 38 39 41 41 43 46 45 46 47 48 50 52 53 52 55 57 59 59 60 62 63 63 63 62 61 61 61 61 62 62 63 64 64 65 66 66 66 67 67 68 68 68 68
36 38 40 42 43 46 48 45 46 47 48 50 53 51 50 53 55 57 58 59 60 61 62 61 61 61 61 60 60 61 62 63 63 64 65 65 66 67 67 67 67 67 67 68
36 38 40 42 44 49 48 45 46 48 49 49 51 50 50 52 53 55 56 58 59 61 62 62 62 62 62 62 61 61 62 63 63 64 65 66 66 66 66 66 66 66 66 67
36 38 41 43 46 48 46 45 45 47 48 48 48 49 50 51 54 54 55 56 57 57 59 60 61 62 62 63 63 63 63 63 63 63 63 64 64 65 65 65 65 65 66 66
36 38 42 43 46 48 44 43 44 47 49 46 47 48 49 50 53 53 53 55 56 56 56 56 57 59 60 60 61 62 62 62 61 62 62 63 63 63 64 64 64 65 65 65
36 39 42 44 46 47 42 41 44 48 46 44 45 46 48 49 50 50 52 53 55 56 56 56 56 56 56 56 57 58 59 60 60 60 60 61 61 61 62 62 63 64 65 65
37 39 41 42 45 43 39 41 45 46 45 45 46 47 48 50 50 50 51 52 53 54 54 55 55 55 54 54 54 54 55 56 57 57 57 58 58 59 60 61 62 62 62 62
37 38 39 41 41 40 40 41 43 45 46 45 46 48 48 49 50 51 51 51 51 52 53 53 54 54 54 54 53 53 53 54 55 55 56 56 56 57 58 59 60 59 59 60
37 38 39 41 40 39 40 41 43 45 46 46 47 48 49 49 50 51 52 53 53 54 54 54 54 54 53 53 53 52 51 52 52 52 53 55 55 56 56 57 57 58 59 60
36 38 39 40 39 40 40 42 43 45 46 46 47 48 49 49 48 48 49 50 51 52 52 53 54 53 52 51 51 50 51 50 51 51 52 53 54 54 55 55 56 57 58 59
36 38 39 39 39 41 41 42 44 45 45 46 47 47 48 49 48 47 47 47 47 48 49 49 50 49 49 49 49 49 48 49 49 50 50 51 52 53 54 54 55 56 57 57
Wind_Direction
235 235 235 235 236 237 237 238 238 239 239 240 239 240 239 239 239 240 241 242 243 244 246 247 248 249 250 251 252 252 254 254 255 256 257 258 259 261 263 265 266 268 270 271
234 234 235 235 235 235 236 237 239 240 240 242 241 240 239 239 240 240 241 242 243 244 246 248 249 250 251 252 253 254 255 255 256 257 258 259 260 262 264 266 268 269 270 271
234 234 234 234 234 235 236 237 239 242 243 244 244 242 240 239 240 241 241 242 243 245 246 248 249 250 251 252 254 255 255 256 257 258 259 260 261 263 265 267 267 269 270 271
234 233 234 234 235 236 237 237 239 242 243 244 244 245 240 240 241 241 242 243 243 245 247 248 250 250 251 253 254 255 255 256 257 258 259 260 261 263 264 265 267 268 270 271
234 234 235 236 236 238 239 239 240 242 243 244 244 246 242 240 242 242 244 244 245 246 248 249 251 252 252 253 254 255 255 256 257 259 260 261 261 262 263 265 266 268 269 271
235 235 235 236 237 238 240 240 241 242 243 244 244 247 246 242 243 244 245 246 247 247 249 251 252 253 253 254 254 255 256 257 258 259 260 261 262 263 263 264 265 267 269 270
235 235 235 235 236 237 238 240 240 241 242 245 245 247 248 246 245 246 247 248 249 250 251 252 253 254 254 255 255 256 257 257 258 259 260 261 262 263 263 264 265 267 268 270
235 235 234 236 236 237 239 240 241 243 245 246 246 247 248 249 250 250 250 251 252 252 252 252 253 254 255 256 256 257 257 257 257 258 259 260 261 262 263 265 266 267 269 270
237 238 236 236 236 236 236 238 241 244 246 247 248 248 248 250 252 253 253 254 254 254 254 254 254 254 255 255 256 257 258 258 258 258 259 260 261 262 263 265 266 268 269 270
238 239 236 236 235 235 237 238 239 241 244 247 249 249 249 249 252 253 255 255 255 255 255 255 255 255 255 255 256 256 257 258 258 259 259 260 261 262 264 265 266 267 268 269
239 241 238 237 237 237 236 237 239 241 244 246 249 249 250 251 253 255 255 256 256 256 256 255 255 255 255 256 256 256 257 258 258 259 259 260 261 262 263 264 265 266 267 268
237 241 241 240 240 239 239 240 241 244 245 247 250 249 249 251 253 254 255 256 256 256 256 256 256 256 256 256 256 257 257 258 258 259 259 260 261 262 263 264 265 265 266 267
235 238 241 240 239 239 240 241 242 244 246 247 249 250 248 250 252 254 255 256 257 258 258 258 257 257 257 257 257 258 258 258 259 260 260 260 261 261 262 263 264 265 266 267
237 238 239 241 242 241 242 242 243 244 246 248 249 251 249 251 252 253 254 255 256 257 258 258 258 258 258 258 259 259 259 259 260 260 261 261 262 262 263 263 264 265 266 267
241 242 241 242 243 244 244 243 243 244 245 248 249 250 250 252 253 254 254 255 256 257 258 258 259 258 258 258 258 259 259 259 259 259 260 261 262 262 263 264 264 265 266 267
246 247 246 244 244 247 247 246 246 247 248 250 251 252 252 254 255 256 256 256 257 258 259 259 260 259 259 259 259 258 259 259 259 259 260 260 261 262 263 263 264 265 266 266
250 252 252 250 248 250 250 250 252 253 253 255 256 256 255 255 256 257 258 258 259 259 259 259 259 259 259 259 259 258 258 259 259 259 260 260 261 262 262 263 264 265 265 266
252 253 255 256 253 253 251 251 253 255 255 256 258 258 257 257 257 257 258 259 258 259 259 258 259 260 260 259 259 259 259 259 259 259 259 260 261 262 262 263 264 265 265 266
255 256 258 260 260 258 252 251 254 257 256 256 258 259 258 258 257 257 258 259 260 260 260 261 260 260 260 260 260 260 260 260 260 260 261 261 262 262 262 263 264 265 265 265
259 259 259 261 263 263 259 256 256 259 259 257 259 259 259 259 259 259 259 259 259 260 261 261 261 262 262 262 261 260 261 261 262 262 261 262 262 263 264 264 265 266 266 267
262 262 261 263 265 267 266 262 261 262 263 261 261 261 260 261 262 262 260 260 260 261 261 261 262 262 263 263 263 262 261 262 263 263 263 263 264 264 264 265 266 267 267 268
266 265 264 265 266 269 270 265 264 266 265 263 263 262 262 262 262 262 262 261 261 261 262 262 262 262 263 264 264 264 263 263 263 264 264 264 264 264 264 265 266 267 268 269
271 269 267 267 268 269 268 267 267 267 266 265 264 264 264 264 263 262 262 261 262 263 263 262 262 263 264 264 265 265 265 265 265 265 263 263 263 264 265 265 265 266 267 268
273 271 269 269 269 268 268 268 268 267 266 265 265 265 265 266 265 265 264 263 263 264 264 264 263 264 265 265 265 265 265 265 264 265 264 264 264 264 265 266 266 266 267 268
275 273 272 272 272 270 269 269 269 268 267 266 265 264 265 265 266 266 266 265 265 265 265 265 264 264 265 264 264 264 264 264 265 265 265 264 264 265 266 266 267 268 269 270
278 276 276 276 275 273 271 269 268 268 267 266 266 265 265 265 265 265 266 265 265 264 264 264 263 263 263 263 263 264 265 266 266 265 265 265 265 265 266 267 268 269 269 270
Height
5662 5670 5677 5687 5694 5702 5707 5712 5717 5725 5730 5733 5739 5745 5752 5757 5762 5768 5773 5778 5783 5787 5790 5793 5796 5798 5801 5804 5806 5809 5811 5813 5814 5816 5818 5819 5820 5821 5822 5823 5824 5824 5824 5825
5651 5659 5671 5676 5682 5688 5694 5699 5706 5713 5718 5721 5727 5733 5740 5746 5752 5758 5763 5769 5773 5777 5781 5784 5787 5790 5793 5796 5799 5801 5804 5805 5807 5809 5810 5811 5813 5814 5815 5816 5817 5817 5817 5817
5641 5653 5659 5663 5669 5676 5682 5690 5696 5702 5706 5709 5714 5720 5728 5736 5741 5747 5753 5758 5763 5767 5771 5774 5777 5781 5784 5788 5790 5793 5795 5797 5799 5800 5802 5803 5805 5806 5807 5808 5808 5808 5808 5809
5630 5641 5645 5651 5658 5665 5672 5681 5685 5689 5693 5696 5702 5705 5717 5724 5730 5736 5743 5748 5753 5757 5761 5764 5767 5771 5775 5778 5781 5783 5785 5787 5789 5791 5792 5794 5796 5798 5799 5799 5799 5799 5799 5800
5621 5630 5634 5641 5650 5655 5662 5669 5673 5676 5680 5683 5689 5692 5703 5713 5719 5726 5732 5738 5743 5747 5750 5753 5757 5760 5764 5767 5770 5772 5774 5777 5779 5781 5782 5784 5786 5788 5788 5789 5790 5790 5790 5790
5612 5618 5624 5632 5640 5645 5651 5656 5660 5662 5665 5668 5678 5681 5687 5701 5710 5716 5722 5726 5731 5735 5739 5742 5745 5748 5752 5755 5758 5760 5763 5765 5767 5769 5771 5773 5775 5776 5777 5778 5779 5780 5780 5780
5601 5607 5614 5621 5627 5633 5639 5644 5647 5649 5650 5656 5668 5668 5676 5690 5699 5704 5710 5714 5718 5722 5726 5730 5733 5736 5739 5742 5745 5748 5751 5753 5755 5757 5759 5761 5763 5764 5765 5767 5767 5768 5769 5769
5591 5598 5605 5611 5617 5623 5628 5632 5637 5640 5642 5648 5653 5655 5669 5678 5685 5691 5696 5701 5705 5709 5713 5716 5719 5722 5726 5729 5732 5734 5737 5740 5742 5744 5746 5748 5750 5751 5753 5754 5755 5756 5756 5757
5583 5590 5597 5602 5608 5612 5616 5620 5627 5630 5631 5634 5637 5646 5657 5665 5670 5676 5682 5687 5691 5695 5699 5702 5705 5708 5712 5715 5717 5720 5723 5725 5728 5731 5733 5735 5737 5738 5740 5741 5741 5742 5743 5743
5575 5580 5586 5592 5596 5600 5607 5612 5615 5616 5619 5621 5626 5635 5645 5654 5657 5662 5667 5672 5676 5680 5684 5687 5690 5694 5697 5699 5703 5706 5708 5711 5714 5716 5718 5720 5722 5724 5725 5726 5727 5728 5729 5729
5568 5571 5577 5581 5586 5592 5597 5600 5602 5605 5608 5612 5616 5625 5636 5641 5645 5648 5652 5656 5661 5665 5669 5672 5676 5679 5682 5685 5688 5691 5693 5696 5698 5701 5703 5705 5707 5708 5710 5711 5712 5713 5713 5714
5561 5563 5567 5572 5578 5582 5585 5589 5593 5596 5598 5602 5605 5614 5625 5629 5631 5634 5637 5640 5644 5649 5653 5657 5661 5664 5667 5670 5673 5676 5678 5681 5683 5685 5687 5689 5691 5692 5694 5695 5696 5697 5698 5698
5553 5556 5559 5563 5569 5571 5574 5579 5582 5585 5587 5589 5592 5603 5614 5616 5618 5621 5623 5625 5628 5633 5637 5641 5645 5648 5651 5654 5657 5660 5663 5665 5667 5669 5671 5673 5674 5676 5677 5679 5680 5681 5681 5682
5545 5547 5551 5555 5558 5561 5564 5568 5571 5573 5574 5577 5582 5591 5600 5602 5605 5608 5609 5611 5613 5616 5620 5624 5628 5632 5635 5639 5641 5644 5647 5649 5651 5653 5655 5657 5658 5660 5661 5662 5663 5664 5664 5665
5536 5539 5542 5545 5548 5550 5552 5556 5560 5562 5565 5567 5573 5578 5586 5590 5591 5593 5595 5597 5599 5601 5604 5607 5611 5615 5618 5621 5624 5627 5629 5632 5634 5636 5638 5640 5641 5643 5644 5645 5646 5646 5647 5647
5528 5531 5533 5536 5539 5539 5540 5545 5549 5552 5555 5557 5560 5565 5575 5577 5576 5577 5579 5582 5584 5586 5589 5591 5594 5598 5601 5604 5607 5609 5612 5614 5616 5619 5621 5622 5624 5625 5626 5627 5628 5629 5629 5630
5520 5523 5524 5526 5529 5526 5529 5538 5540 5541 5544 5547 5548 5556 5562 5562 5563 5564 5565 5566 5567 5570 5572 5575 5577 5580 5584 5587 5590 5593 5595 5597 5599 5601 5603 5604 5606 5607 5608 5609 5610 5611 5612 5612
5513 5514 5514 5515 5517 5515 5525 5529 5529 5530 5533 5536 5537 5542 5546 5548 5549 5549 5550 5550 5551 5553 5556 5558 5561 5564 5566 5569 5572 5574 5576 5579 5581 5583 5585 5586 5588 5589 5590 5591 5592 5593 5594 5594
5505 5505 5504 5504 5503 5503 5512 5519 5520 5519 5520 5525 5525 5529 5532 5533 5532 5534 5536 5536 5537 5539 5540 5542 5545 5547 5550 5552 5554 5556 5558 5561 5563 5566 5567 5568 5569 5571 5572 5573 5575 5575 5576 5576
5496 5495 5495 5494 5493 5493 5504 5509 5509 5506 5505 5514 5514 5515 5517 5517 5516 5521 5522 5522 5522 5524 5526 5527 5529 5530 5533 5535 5537 5539 5541 5543 5546 5548 5549 5550 5552 5553 5554 5556 5557 5557 5557 5558
5487 5486 5485 5485 5483 5484 5494 5497 5496 5494 5497 5501 5500 5501 5502 5502 5503 5506 5506 5507 5508 5509 5511 5512 5514 5515 5517 5519 5520 5522 5524 5527 5528 5530 5531 5533 5534 5535 5537 5538 5539 5539 5539 5539
5476 5476 5476 5476 5474 5478 5484 5483 5483 5482 5485 5486 5486 5487 5487 5488 5490 5491 5491 5492 5493 5495 5496 5497 5498 5500 5501 5503 5504 5506 5508 5510 5511 5513 5514 5516 5517 5518 5519 5520 5521 5521 5521 5521
5466 5467 5466 5466 5467 5469 5470 5469 5469 5469 5470 5471 5472 5473 5474 5475 5476 5477 5478 5478 5479 5480 5481 5482 5484 5485 5486 5487 5489 5490 5492 5493 5494 5496 5497 5499 5500 5501 5502 5503 5503 5504 5504 5504
5456 5456 5454 5453 5456 5457 5458 5457 5456 5456 5456 5457 5457 5458 5459 5460 5461 5462 5463 5464 5465 5466 5466 5467 5468 5470 5471 5472 5474 5475 5476 5477 5478 5479 5481 5482 5483 5484 5485 5485 5486 5486 5487 5486
5446 5445 5443 5443 5445 5445 5445 5444 5443 5442 5442 5442 5443 5444 5445 5445 5446 5447 5448 5449 5449 5450 5451 5452 5453 5454 5456 5457 5458 5460 5461 5462 5463 5464 5464 5465 5466 5467 5468 5469 5469 5469 5469 5469
5436 5434 5432 5432 5433 5431 5431 5431 5430 5429 5429 5429 5429 5430 5431 5431 5432 5433 5433 5434 5434 5435 5436 5437 5438 5439 5441 5442 5444 5445 5446 5447 5448 5449 5449 5450 5450 5451 5452 5452 5453 5452 5452 5452